Scottsdale, AZ

3:20 AM MST on February 25, 2017 (GMT -0700)
Scottsdale

Weather History for KSDL - November, 2011

Change the Weather History Date:

Thursday, November 10, 2011

  Actual Average Record
Temperature  
Mean Temperature 64 °F -  
Max Temperature 73 °F 72 °F 87 °F (1996)
Min Temperature 55 °F 51 °F 42 °F (1998)
Degree Days  
Heating Degree Days 1    
Growing Degree Days 14 (Base 50)    
Moisture  
Dew Point 24 °F    
Average Humidity 21    
Maximum Humidity 34    
Minimum Humidity 15    
Precipitation  
Precipitation 0.00 in - - ()
Sea Level Pressure  
Sea Level Pressure 30.15 in    
Wind  
Wind Speed 8 mph (East)    
Max Wind Speed 16 mph    
Max Gust Speed 21 mph    
Visibility 10 miles    
Events      
Averages and records for this station are not official NWS values.
T = Trace of Precipitation, MM = Missing Value Source: NWS Daily Summary

Daily Weather History Graph

Daily Weather History Graph

Search for Another Location

Airport or City:

Trip Planner

Search our weather history database for the weather conditions in past years. The results will help you decide how hot, cold, wet, or windy it might be!

Date:

Astronomy

Nov. 10, 2011 Rise Set
Actual Time 6:54 AM MST 5:28 PM MST
Civil Twilight 6:28 AM MST 5:54 PM MST
Nautical Twilight 5:58 AM MST 6:24 PM MST
Astronomical Twilight 5:29 AM MST 6:53 PM MST
Moon 5:21 PM MST (11/10) 6:48 AM MST (11/10)
Length of Visible Light 11h 25m
Length of Day
10h 33m
Full, 100% of the Moon is Illuminated
Nov 10
Full
Nov 10
Full
Nov 18
Last Quarter
Nov 24
New
Dec 2
First Quarter

Hourly Weather History & Observations

Time (MST) Temp. Dew Point Humidity Pressure Visibility Wind Dir Wind Speed Gust Speed Precip Events Conditions
12:53 AM 61.0 °F 26.1 °F 26% 30.24 in 10.0 mi NE 16.1 mph - N/A   Clear
2:53 AM 61.0 °F 26.1 °F 26% 30.23 in 10.0 mi NNE 8.1 mph - N/A   Clear
3:53 AM 57.0 °F 28.0 °F 33% 30.23 in 10.0 mi Calm Calm - N/A   Clear
6:53 AM 55.9 °F 28.0 °F 34% 30.27 in 10.0 mi NE 3.5 mph - N/A   Clear
8:53 AM 63.0 °F 27.0 °F 26% 30.29 in 10.0 mi Calm Calm - N/A   Clear
9:53 AM 66.0 °F 27.0 °F 23% 30.27 in 10.0 mi NE 6.9 mph - N/A   Clear
10:53 AM 66.9 °F 27.0 °F 22% 30.26 in 10.0 mi East 11.5 mph 19.6 mph N/A   Clear
11:53 AM 69.1 °F 26.1 °F 20% 30.22 in 10.0 mi East 11.5 mph 18.4 mph N/A   Clear
12:53 PM 70.0 °F 24.1 °F 18% 30.18 in 10.0 mi ESE 10.4 mph 17.3 mph N/A   Clear
2:53 PM 73.0 °F 21.9 °F 15% 30.10 in 10.0 mi East 16.1 mph 20.7 mph N/A   Clear
3:53 PM 72.0 °F 21.9 °F 15% 30.08 in 10.0 mi East 8.1 mph - N/A   Clear
4:53 PM 70.0 °F 24.1 °F 18% 30.08 in 10.0 mi East 4.6 mph - N/A   Clear
5:53 PM 69.1 °F 21.0 °F 16% 30.07 in 10.0 mi East 9.2 mph - N/A   Clear
6:53 PM 69.1 °F 19.9 °F 15% 30.08 in 10.0 mi ESE 4.6 mph - N/A   Clear
7:53 PM 68.0 °F 21.0 °F 17% 30.06 in 10.0 mi ENE 4.6 mph - N/A   Clear
8:53 PM 66.9 °F 21.9 °F 18% 30.06 in 10.0 mi ENE 3.5 mph - N/A   Clear
9:53 PM 66.9 °F 19.9 °F 17% 30.07 in 10.0 mi ENE 3.5 mph - N/A   Clear
10:53 PM 66.0 °F 19.9 °F 17% 30.06 in 10.0 mi East 4.6 mph - N/A   Clear
11:53 PM 63.0 °F 23.0 °F 22% 30.04 in 10.0 mi Calm Calm - N/A   Clear